Theta_e
313 314 316 312 313 313 313 315 315 315 314 313 315 316 314 311 310 310 308 310 311 315 314 318 324 323 329 329 330 330 328 328 327 327 326 325 326 327 324 325 326 327 327 324
313 315 311 311 312 314 315 315 315 314 314 314 315 312 311 309 309 309 308 307 310 311 311 313 321 320 323 329 330 330 329 328 327 326 328 326 326 324 325 326 326 327 328 326
311 312 310 310 313 315 314 312 312 314 314 313 313 314 312 308 308 306 306 306 309 309 309 310 314 317 312 327 329 329 329 329 328 327 327 326 326 325 326 326 327 328 324 323
311 310 309 310 312 312 314 314 313 314 316 319 313 318 311 311 308 307 303 304 306 307 309 308 309 312 311 320 326 329 329 329 328 327 328 327 327 326 326 326 325 324 325 326
312 309 309 311 311 310 312 312 313 315 318 317 314 316 312 309 309 307 306 304 307 306 308 308 308 309 310 312 316 321 323 324 326 327 327 327 327 326 327 326 323 322 324 323
310 309 309 310 309 309 311 312 314 315 317 320 311 313 312 310 308 306 307 306 309 308 307 307 307 310 310 311 312 314 315 314 317 318 323 324 326 326 326 327 326 325 326 326
311 310 309 308 310 312 311 312 316 320 316 314 311 312 311 309 307 308 308 306 307 309 308 308 308 310 310 310 310 311 311 311 311 310 313 316 318 319 322 319 322 322 322 321
311 311 310 309 310 310 310 312 312 316 315 314 310 310 310 308 308 306 305 305 305 306 308 308 309 309 309 309 309 309 310 311 311 311 311 312 312 313 312 313 313 314 314 314
311 311 309 309 308 309 311 311 310 313 309 312 311 311 309 308 307 306 305 303 303 302 303 304 306 308 308 308 308 308 308 309 309 310 311 311 312 312 312 313 313 313 313 314
310 309 308 308 309 309 310 309 311 309 311 316 311 310 309 309 307 305 303 302 301 301 301 301 301 303 303 304 305 307 308 309 308 308 310 311 311 311 311 312 311 311 311 311
309 308 309 309 309 309 310 312 311 310 310 314 315 309 307 307 304 302 302 301 300 300 300 299 299 299 300 301 302 303 304 305 306 305 306 307 308 309 307 308 309 310 312 312
308 308 306 309 306 307 309 310 311 310 311 309 310 309 307 303 302 302 301 300 300 300 300 299 299 299 299 299 299 300 300 303 303 303 303 303 303 303 303 303 304 305 307 308
308 304 302 307 308 307 309 310 310 310 308 311 312 310 305 303 302 301 301 300 300 300 300 299 299 298 298 298 299 299 299 299 300 301 303 304 303 303 303 303 302 303 303 303
306 307 306 308 307 306 308 308 309 309 308 310 308 308 305 302 300 301 301 301 300 300 299 299 298 298 298 298 298 298 298 298 299 299 299 300 301 303 304 303 303 302 302 302
306 306 305 305 305 305 304 304 305 307 308 308 308 308 307 303 300 301 301 300 300 299 298 298 298 298 298 298 298 298 298 298 298 298 298 298 299 299 300 301 303 304 304 303
305 305 301 298 304 304 303 302 302 303 305 307 308 306 306 305 303 301 301 300 299 299 298 298 298 298 298 298 298 297 297 298 298 298 298 298 298 299 299 299 299 300 301 302
302 299 296 297 297 295 295 296 300 303 304 307 308 307 305 303 302 301 301 300 299 298 298 298 298 298 298 298 298 297 297 297 298 298 298 298 298 298 299 299 299 300 300 300
297 297 295 296 291 296 300 299 298 300 303 305 307 307 305 303 303 301 300 300 299 298 298 298 297 297 297 298 297 297 297 297 297 298 298 298 298 298 298 298 299 299 300 300
300 300 294 294 294 298 298 296 297 299 301 302 306 305 304 304 302 301 300 299 298 298 298 298 297 297 297 297 297 297 297 297 297 297 298 298 298 297 298 298 299 300 300 300
299 298 297 290 294 294 300 296 298 299 297 301 305 305 302 302 300 298 300 299 298 298 298 297 297 297 297 296 296 297 297 297 297 297 297 298 298 298 297 297 297 298 298 299
296 294 294 293 292 296 300 297 298 295 298 302 305 305 301 301 302 302 300 298 298 298 297 297 297 297 297 297 297 297 297 297 297 297 297 297 298 298 298 298 298 297 297 297
298 297 296 294 293 296 298 297 297 298 298 301 305 302 301 302 301 301 299 298 298 298 298 297 297 297 297 297 297 297 296 296 296 296 296 297 297 297 297 297 298 298 298 298
299 300 299 299 299 297 298 299 298 298 299 299 303 301 301 300 300 300 298 298 298 298 298 298 298 297 297 296 295 295 294 294 294 294 294 294 294 295 295 296 296 297 298 298
296 298 297 297 297 296 297 298 298 298 298 299 301 301 301 300 299 298 298 298 298 298 298 298 297 296 295 294 294 293 293 293 293 293 293 293 293 293 294 294 294 294 295 296
296 296 295 295 296 297 298 298 297 298 298 299 298 299 300 298 298 298 298 298 298 298 297 296 296 295 294 293 293 293 293 292 292 292 292 292 293 293 294 294 294 293 293 293
296 296 297 296 298 298 298 299 298 297 298 299 299 298 298 298 298 298 298 298 298 297 296 296 294 294 293 293 293 293 293 293 293 293 293 293 293 293 293 293 294 293 293 293
Wind_Speed
4 2 2 5 5 3 8 7 9 12 7 4 11 7 9 13 17 17 17 21 19 13 15 13 12 16 17 19 28 30 31 32 29 25 25 26 29 29 23 21 20 16 16 15
3 3 6 3 5 6 3 7 6 10 11 2 6 6 8 14 16 20 18 18 18 18 15 10 4 11 8 27 30 26 28 26 24 25 23 23 24 20 23 22 21 19 19 18
4 4 3 5 7 4 5 3 4 6 5 1 6 1 5 6 11 19 20 22 20 23 20 16 11 10 5 17 26 28 27 24 22 23 22 20 19 21 25 24 21 18 17 17
6 3 2 6 8 6 5 1 6 5 2 2 3 2 3 6 8 10 17 23 24 23 23 20 22 23 18 25 18 22 21 21 20 19 19 22 21 25 25 23 17 16 15 18
1 3 5 4 3 5 7 9 11 1 2 3 2 2 3 8 8 15 13 17 18 22 24 23 26 26 36 30 29 21 18 17 16 17 19 18 20 22 21 21 18 18 15 14
11 2 2 4 9 8 10 11 6 4 3 2 5 0 3 9 9 11 18 19 16 19 20 25 26 10 35 37 35 30 25 25 20 16 12 12 16 18 23 18 16 14 13 13
4 8 3 1 8 4 8 8 1 2 2 1 6 5 2 8 9 9 13 20 23 21 17 15 15 31 30 29 25 27 33 36 25 22 20 16 14 13 16 18 15 14 10 8
3 2 1 4 2 3 4 4 2 2 3 3 7 4 4 2 6 10 14 19 20 17 14 18 28 31 28 26 16 19 19 21 27 23 20 17 19 20 15 14 16 13 12 10
4 2 4 1 2 3 4 4 4 4 2 1 2 3 3 5 7 14 15 15 16 18 20 22 18 15 18 22 24 32 24 20 17 14 21 20 19 17 17 15 16 14 10 13
2 4 2 2 4 4 1 3 1 2 3 2 1 3 3 4 5 8 10 14 16 16 19 18 16 15 13 12 14 16 17 20 24 20 19 17 18 16 17 13 13 10 13 11
3 2 1 4 4 3 1 1 2 1 1 2 0 2 4 7 5 6 9 11 12 11 13 13 16 16 18 18 17 15 12 10 10 10 11 11 10 9 9 8 7 7 6 5
4 2 3 3 5 1 1 2 3 1 1 1 2 2 6 8 9 10 9 7 8 9 11 14 17 19 19 21 22 22 19 16 13 9 9 8 8 8 8 9 9 9 8 6
3 1 3 2 2 4 2 2 3 5 1 3 0 2 6 10 10 9 7 6 7 9 10 13 16 17 19 20 21 21 20 20 18 15 13 10 8 9 8 9 8 8 8 8
1 1 3 2 2 2 2 1 2 4 2 2 4 6 7 8 8 11 9 6 6 9 9 11 13 15 16 17 18 19 19 19 18 17 16 14 13 11 10 10 10 9 9 8
2 2 2 7 8 3 5 7 7 6 7 3 4 6 12 9 9 14 9 7 7 7 8 10 11 13 13 15 16 17 17 17 18 17 17 17 15 14 12 10 9 9 9 9
3 2 2 4 6 5 6 8 9 10 9 8 7 8 9 20 20 17 14 10 7 6 6 7 8 10 11 13 14 15 16 17 17 17 17 16 16 15 14 13 13 13 12 12
5 4 3 4 4 4 7 8 14 6 6 8 7 6 10 8 16 21 19 15 11 7 4 5 6 8 9 10 11 13 15 15 15 16 17 16 16 15 14 13 12 11 11 11
4 4 3 3 3 1 5 1 1 7 7 9 1 3 14 16 18 19 17 16 12 7 3 3 4 6 7 7 9 11 12 13 13 13 15 15 16 16 15 15 14 14 13 13
5 4 2 3 3 7 7 4 5 6 6 9 8 6 12 17 16 14 18 16 13 7 2 1 1 3 4 6 8 8 8 9 9 10 11 13 15 15 15 14 13 14 14 14
2 2 3 2 3 6 3 4 3 2 5 14 18 11 15 23 6 5 21 18 13 6 4 4 2 1 4 6 7 7 7 7 9 11 10 11 13 14 15 15 15 16 16 16
2 0 5 4 3 7 5 10 8 6 5 5 23 24 25 9 9 17 26 19 12 6 5 3 3 3 3 3 5 5 5 6 7 8 9 10 11 13 15 16 17 18 19 19
8 7 4 3 2 9 15 6 6 3 3 6 16 24 26 15 12 24 26 20 12 9 7 4 4 2 1 2 3 5 6 8 10 11 12 12 13 15 17 18 19 20 22 23
5 7 6 9 7 2 26 5 18 1 2 7 13 22 28 20 22 25 24 17 13 10 8 6 5 4 3 3 5 7 9 10 10 11 12 13 15 17 19 22 23 25 26 28
4 9 4 2 8 12 18 22 11 16 8 8 17 22 26 21 24 25 20 16 14 10 8 7 6 3 2 1 4 6 8 11 14 16 16 17 19 19 21 23 25 27 28 31
7 12 7 5 7 5 12 22 23 19 12 12 17 23 25 24 24 21 17 16 13 10 9 7 5 5 2 1 4 8 12 15 16 17 18 19 19 21 23 23 24 26 27 29
10 7 7 7 15 14 12 16 25 23 21 18 20 24 24 23 21 19 18 15 12 10 8 9 8 5 3 3 7 11 14 16 17 19 21 23 25 25 26 29 31 29 30 32
Wind_Direction
158 300 65 17 354 322 303 282 308 315 319 323 360 16 28 6 3 0 351 348 338 338 311 290 270 265 248 220 217 201 199 203 206 212 216 212 218 216 215 215 218 218 229 246
194 247 66 312 276 310 302 307 309 299 333 106 343 17 353 8 352 357 3 345 352 9 2 352 271 253 194 191 179 187 201 197 195 204 211 220 221 217 221 221 227 228 225 240
282 358 20 320 301 326 316 199 257 243 309 95 332 92 7 340 349 360 3 353 15 22 19 33 56 70 18 155 166 173 185 189 202 211 211 219 226 217 224 230 226 231 238 237
274 73 315 318 294 17 311 125 321 319 316 323 28 295 24 356 341 355 356 5 10 19 37 49 63 65 64 90 130 181 179 181 189 204 208 221 223 222 223 234 230 229 230 233
298 360 343 298 41 351 260 328 296 92 285 236 357 289 10 5 345 331 337 349 2 29 38 43 55 63 70 70 82 100 117 135 158 190 211 218 218 222 222 217 212 225 229 239
263 332 273 321 307 262 278 281 240 219 220 141 284 89 28 8 338 325 334 344 0 25 38 41 62 40 66 70 67 82 77 71 76 79 122 163 193 180 205 205 201 212 226 253
228 205 134 262 303 122 356 320 339 265 339 4 344 52 62 355 341 337 359 8 17 27 23 32 29 58 56 53 58 67 70 59 58 52 73 81 89 92 115 105 135 138 134 150
314 285 349 15 51 333 310 327 81 306 341 319 45 12 343 59 100 70 58 30 24 21 29 38 42 55 59 62 56 62 71 65 47 47 55 63 67 73 69 71 62 83 81 67
345 93 138 68 351 349 351 57 355 300 33 337 105 107 164 41 52 56 49 41 31 26 26 35 30 36 55 69 71 71 75 71 67 49 46 49 55 51 50 48 50 43 51 55
52 296 73 121 205 214 208 332 275 281 347 332 137 102 110 86 41 58 46 51 36 31 40 41 47 48 49 44 41 51 53 71 75 68 63 61 58 51 54 38 49 20 44 45
331 116 244 214 36 31 315 65 309 244 144 291 224 142 97 106 82 87 78 61 53 43 50 51 57 56 58 56 53 59 65 66 59 30 32 32 27 30 20 8 13 340 353 319
62 37 277 32 120 151 314 344 281 275 239 163 266 196 124 125 124 120 104 86 79 69 59 53 51 53 54 53 51 51 53 50 55 50 50 40 20 24 21 16 7 357 2 353
142 77 313 291 157 194 231 123 285 277 265 237 230 200 137 137 136 132 123 109 82 70 61 61 58 53 52 51 51 50 48 45 45 43 46 42 30 29 32 34 24 14 11 6
41 94 247 265 34 18 302 289 242 280 293 278 234 151 177 178 158 151 152 131 98 79 71 67 61 54 51 52 47 47 45 42 40 37 35 34 29 27 23 17 16 13 15 11
232 193 228 286 293 280 264 274 277 254 259 244 329 186 191 186 168 168 164 139 109 85 68 54 53 53 54 54 51 47 44 38 35 33 31 30 23 20 19 16 11 4 359 357
168 150 97 284 265 248 265 251 254 252 246 260 269 281 168 173 163 161 164 158 139 119 82 46 39 40 40 43 40 38 36 36 31 29 28 27 23 18 15 10 4 358 355 353
150 139 111 263 332 321 305 228 219 205 200 199 206 219 149 160 162 168 169 167 161 141 88 34 39 36 33 34 30 27 25 26 26 24 24 24 21 17 16 12 5 355 348 341
132 128 114 248 1 294 238 141 53 237 222 217 279 191 168 164 165 173 173 167 162 153 121 63 46 39 32 24 15 11 10 15 19 20 21 21 22 19 16 10 2 355 348 339
164 151 144 154 220 290 307 192 175 185 256 220 193 189 155 158 149 159 173 174 169 164 144 61 69 51 22 9 6 4 2 10 10 11 11 10 11 11 10 8 3 354 344 334
328 345 142 119 175 227 247 161 131 109 294 215 187 177 150 143 164 213 179 177 170 166 156 153 169 359 14 20 24 19 13 10 8 10 4 358 357 356 354 352 349 344 339 332
131 274 182 203 231 282 220 153 155 99 244 194 188 176 159 173 197 187 182 174 175 172 167 165 151 126 81 39 22 20 18 10 10 5 356 348 335 332 332 333 334 332 329 325
171 164 186 174 167 264 142 117 185 208 333 210 184 181 176 175 163 168 173 173 173 171 164 155 152 164 250 296 336 344 348 357 356 352 345 337 329 324 320 319 316 315 314 312
210 183 178 193 209 183 173 186 212 160 230 201 184 181 178 167 164 168 168 174 180 177 177 177 188 209 257 333 360 7 2 356 352 347 337 329 325 320 316 314 312 308 304 300
248 193 201 123 237 223 210 223 226 231 240 224 196 185 189 177 172 169 174 179 180 184 188 198 206 205 135 34 351 349 347 346 341 338 338 335 329 326 320 314 311 307 306 302
193 158 171 266 277 295 224 228 232 226 214 215 200 203 195 183 175 180 182 185 187 190 197 200 184 145 146 286 342 340 341 340 337 337 334 329 324 320 319 315 315 313 314 308
191 170 180 218 201 207 218 231 222 214 212 202 195 186 186 190 188 191 190 194 196 196 199 177 160 168 175 328 343 345 338 337 340 341 337 333 329 324 323 324 323 322 320 317